Jacksonville, IL

9:05 AM CDT on May 24, 2017 (GMT -0500)
Jacksonville Municipal

Weather History for KIJX - April, 2014

Change the Weather History Date:

Monday, April 7, 2014

  Actual Average (KSPI) Record (KSPI)
Temperature  
Mean Temperature 48 °F -  
Max Temperature 55 °F 62 °F 85 °F (2001)
Min Temperature 41 °F 39 °F 20 °F (1982)
Degree Days  
Heating Degree Days 17    
Moisture  
Dew Point 36 °F    
Average Humidity 63    
Maximum Humidity 82    
Minimum Humidity 40    
Precipitation  
Precipitation 0.00 in - - ()
Sea Level Pressure  
Sea Level Pressure 29.74 in    
Wind  
Wind Speed 6 mph (North)    
Max Wind Speed 12 mph    
Max Gust Speed -    
Visibility 10 miles    
Events Rain    
Averages and records for this station are not official NWS values.
T = Trace of Precipitation, MM = Missing Value Source: NWS Daily Summary

Daily Weather History Graph

Daily Weather History Graph

Search for Another Location

Airport or City:

Trip Planner

Search our weather history database for the weather conditions in past years. The results will help you decide how hot, cold, wet, or windy it might be!

Date:

Astronomy

Apr. 07, 2014 Rise Set
Actual Time 6:35 AM CDT 7:31 PM CDT
Civil Twilight 6:08 AM CDT 7:58 PM CDT
Nautical Twilight 5:35 AM CDT 8:31 PM CDT
Astronomical Twilight 5:01 AM CDT 9:05 PM CDT
Moon 12:31 PM CDT (4/7) 2:08 AM CDT (4/7)
Length of Visible Light 13h 50m
Length of Day
12h 55m
First Quarter, 53% of the Moon is Illuminated
Apr 7
First Quarter
Apr 15
Full
Apr 22
Last Quarter
Apr 29
New
May 6
First Quarter

Hourly Weather History & Observations

Time (CDT) Temp. Windchill Dew Point Humidity Pressure Visibility Wind Dir Wind Speed Gust Speed Precip Events Conditions
12:15 AM 41.5 °F 36.4 °F 36.0 °F 81% 29.88 in 10.0 mi East 8.1 mph - N/A   Clear
12:35 AM 42.1 °F 38.4 °F 36.3 °F 80% 29.87 in 10.0 mi East 5.8 mph - N/A   Clear
12:55 AM 41.9 °F 39.0 °F 36.5 °F 81% 29.87 in 10.0 mi ENE 4.6 mph - N/A   Clear
1:15 AM 42.1 °F 38.4 °F 37.0 °F 82% 29.85 in 10.0 mi NE 5.8 mph - N/A   Clear
1:35 AM 43.9 °F 41.3 °F 36.7 °F 76% 29.84 in 10.0 mi NNE 4.6 mph - N/A   Clear
1:55 AM 43.7 °F 41.1 °F 36.9 °F 77% 29.83 in 10.0 mi NE 4.6 mph - N/A   Scattered Clouds
2:15 AM 44.2 °F 42.7 °F 37.0 °F 76% 29.82 in 10.0 mi NNE 3.5 mph - N/A   Scattered Clouds
2:35 AM 44.2 °F 41.0 °F 36.7 °F 75% 29.80 in 10.0 mi NNE 5.8 mph - N/A   Mostly Cloudy
2:55 AM 43.9 °F - 36.7 °F 76% 29.80 in 10.0 mi Calm Calm - N/A   Scattered Clouds
3:15 AM 43.0 °F - 37.6 °F 81% 29.80 in 10.0 mi Calm Calm - N/A   Scattered Clouds
3:35 AM 43.9 °F - 36.7 °F 76% 29.80 in 10.0 mi Calm Calm - N/A   Scattered Clouds
3:55 AM 43.3 °F - 36.7 °F 77% 29.80 in 10.0 mi Calm Calm - N/A   Scattered Clouds
4:15 AM 42.8 °F - 37.0 °F 80% 29.80 in 10.0 mi Calm Calm - N/A   Scattered Clouds
4:35 AM 43.2 °F - 36.7 °F 78% 29.80 in 10.0 mi Calm Calm - N/A   Scattered Clouds
4:55 AM 42.4 °F - 36.7 °F 80% 29.81 in 10.0 mi Calm Calm - N/A   Mostly Cloudy
5:15 AM 42.3 °F 39.4 °F 36.7 °F 81% 29.80 in 10.0 mi NNE 4.6 mph - N/A   Mostly Cloudy
5:35 AM 42.8 °F 39.3 °F 36.7 °F 79% 29.79 in 10.0 mi NNE 5.8 mph - N/A   Scattered Clouds
5:55 AM 43.2 °F 38.4 °F 36.0 °F 76% 29.78 in 10.0 mi NNE 8.1 mph - N/A   Scattered Clouds
6:15 AM 43.3 °F 39.2 °F 35.8 °F 75% 29.78 in 10.0 mi NNE 6.9 mph - N/A   Scattered Clouds
6:35 AM 43.2 °F 39.7 °F 36.0 °F 76% 29.78 in 10.0 mi ENE 5.8 mph - N/A   Mostly Cloudy
6:55 AM 43.3 °F 39.2 °F 36.0 °F 75% 29.77 in 10.0 mi NE 6.9 mph - N/A   Scattered Clouds
7:15 AM 43.9 °F 39.9 °F 36.0 °F 74% 29.76 in 10.0 mi NNE 6.9 mph - N/A   Scattered Clouds
7:35 AM 44.6 °F 40.7 °F 36.1 °F 72% 29.75 in 10.0 mi North 6.9 mph - N/A   Scattered Clouds
7:55 AM 44.2 °F 39.2 °F 36.5 °F 74% 29.75 in 10.0 mi NNE 9.2 mph - N/A   Clear
8:15 AM 44.6 °F 39.7 °F 36.5 °F 73% 29.75 in 10.0 mi North 9.2 mph - N/A   Clear
8:35 AM 44.8 °F 41.0 °F 36.5 °F 73% 29.74 in 10.0 mi North 6.9 mph - N/A   Clear
8:55 AM 45.0 °F 42.6 °F 36.3 °F 72% 29.74 in 10.0 mi NE 4.6 mph - N/A   Clear
9:15 AM 45.5 °F 42.5 °F 37.0 °F 72% 29.73 in 10.0 mi NNE 5.8 mph - N/A   Clear
9:35 AM 45.9 °F 41.7 °F 36.9 °F 71% 29.72 in 10.0 mi NNE 8.1 mph - N/A   Mostly Cloudy
9:55 AM 46.6 °F - 37.0 °F 69% 29.71 in 10.0 mi North 4.6 mph - N/A   Mostly Cloudy
10:15 AM 47.1 °F - 36.9 °F 68% 29.72 in 10.0 mi North 4.6 mph - N/A   Scattered Clouds
10:35 AM 48.2 °F - 37.4 °F 66% 29.71 in 10.0 mi NNW 8.1 mph - N/A   Scattered Clouds
10:55 AM 49.1 °F - 36.7 °F 62% 29.71 in 10.0 mi NNW 9.2 mph - N/A   Clear
11:15 AM 50.0 °F - 36.1 °F 59% 29.71 in 10.0 mi North 4.6 mph - N/A   Clear
11:35 AM 50.4 °F - 36.1 °F 58% 29.71 in 10.0 mi North 5.8 mph - N/A   Clear
11:55 AM 50.9 °F - 36.7 °F 58% 29.70 in 10.0 mi NNW 6.9 mph - N/A   Clear
12:15 PM 51.8 °F - 36.9 °F 57% 29.70 in 10.0 mi NNW 3.5 mph - N/A   Clear
12:35 PM 52.7 °F - 36.7 °F 55% 29.70 in 10.0 mi Calm Calm - N/A   Clear
12:55 PM 53.1 °F - 36.7 °F 54% 29.70 in 10.0 mi NNE 4.6 mph - N/A   Clear
1:15 PM 54.3 °F - 34.0 °F 46% 29.69 in 10.0 mi NNE 11.5 mph - N/A   Clear
1:35 PM 54.1 °F - 33.4 °F 46% 29.69 in 10.0 mi NNE 9.2 mph - N/A   Clear
1:55 PM 54.5 °F - 33.8 °F 46% 29.69 in 10.0 mi North 6.9 mph - N/A   Clear
2:15 PM 54.9 °F - 34.0 °F 45% 29.69 in 10.0 mi North 9.2 mph - N/A   Clear
2:35 PM 55.0 °F - 34.0 °F 45% 29.68 in 10.0 mi North 9.2 mph - N/A   Clear
2:55 PM 55.4 °F - 34.3 °F 45% 29.68 in 10.0 mi NNW 10.4 mph - N/A   Clear
3:15 PM 55.4 °F - 34.3 °F 45% 29.68 in 10.0 mi NNW 9.2 mph - N/A   Clear
3:35 PM 55.4 °F - 34.2 °F 45% 29.68 in 10.0 mi NNW 8.1 mph - N/A   Clear
3:55 PM 55.4 °F - 34.3 °F 45% 29.68 in 10.0 mi NNW 8.1 mph - N/A   Clear
4:15 PM 55.6 °F - 33.1 °F 43% 29.67 in 10.0 mi NNW 10.4 mph - N/A   Clear
4:35 PM 55.4 °F - 32.0 °F 41% 29.68 in 10.0 mi North 11.5 mph - N/A   Clear
4:55 PM 55.6 °F - 31.5 °F 40% 29.68 in 10.0 mi NNW 10.4 mph - N/A   Clear
5:15 PM 55.9 °F - 32.0 °F 40% 29.68 in 10.0 mi NNW 9.2 mph - N/A   Clear
5:35 PM 55.8 °F - 32.5 °F 41% 29.68 in 10.0 mi NNW 9.2 mph - N/A   Clear
5:55 PM 55.6 °F - 32.0 °F 41% 29.68 in 10.0 mi North 8.1 mph - N/A   Clear
6:15 PM 55.4 °F - 32.4 °F 42% 29.68 in 10.0 mi North 3.5 mph - N/A   Clear
6:35 PM 54.5 °F - 33.4 °F 45% 29.68 in 10.0 mi Calm Calm - N/A   Scattered Clouds
6:55 PM 54.1 °F - 33.4 °F 46% 29.68 in 10.0 mi Calm Calm - N/A   Scattered Clouds
7:15 PM 53.6 °F - 32.9 °F 45% 29.69 in 10.0 mi Calm Calm - N/A   Mostly Cloudy
7:35 PM 52.3 °F - 37.4 °F 57% 29.70 in 10.0 mi Calm Calm - N/A   Overcast
7:55 PM 51.1 °F - 37.9 °F 61% 29.70 in 10.0 mi Calm Calm - N/A   Overcast
8:15 PM 51.1 °F - 36.5 °F 57% 29.71 in 10.0 mi SW 5.8 mph - N/A   Overcast
8:35 PM 51.1 °F - 36.5 °F 57% 29.72 in 10.0 mi SW 4.6 mph - N/A   Overcast
8:55 PM 50.9 °F - 37.4 °F 60% 29.73 in 10.0 mi SW 5.8 mph - N/A   Overcast
9:15 PM 50.9 °F - 37.2 °F 59% 29.73 in 10.0 mi WSW 5.8 mph - N/A   Mostly Cloudy
9:35 PM 50.5 °F - 37.4 °F 61% 29.74 in 10.0 mi SW 5.8 mph - N/A   Overcast
9:55 PM 50.7 °F - 36.7 °F 59% 29.74 in 10.0 mi SW 6.9 mph - N/A   Overcast
10:15 PM 50.2 °F - 37.6 °F 62% 29.74 in 10.0 mi SW 5.8 mph - N/A   Overcast
10:35 PM 50.0 °F - 38.1 °F 64% 29.74 in 10.0 mi SW 5.8 mph - N/A   Overcast
10:55 PM 49.6 °F - 38.5 °F 65% 29.74 in 10.0 mi SW 5.8 mph - N/A   Overcast
11:15 PM 49.3 °F - 40.1 °F 71% 29.75 in 10.0 mi WSW 5.8 mph - N/A Rain Light Rain
11:35 PM 48.7 °F - 41.5 °F 76% 29.75 in 10.0 mi SW 5.8 mph - N/A   Light Drizzle
11:55 PM 50.0 °F - 42.1 °F 74% 29.75 in 10.0 mi WSW 6.9 mph - N/A   Mostly Cloudy